Regional Weather Roundup
Issued by NWS Northern Indiana

Home | Current Version | Previous Version | Graphics & Text | Print | Product List | Glossary On
Versions: 1 2 3 4 5 6 7 8 9 10 11 12 13 14 15 16 17 18 19 20 21 22 23 24 25 26 27 28 29 30 31 32 33 34 35 36 37 38 39 40 41 42 43 44 45 46 47 48 49 50
473
ASUS43 KIWX 271600
RWRIWX

KIWX WEATHER ROUNDUP
NATIONAL WEATHER SERVICE NORTHERN INDIANA
1200 PM EDT FRI MAY 27 2016

NOTE: "FAIR" INDICATES FEW OR NO CLOUDS BELOW 12,000 FEET WITH NO
SIGNIFICANT WEATHER AND/OR OBSTRUCTIONS TO VISIBILITY.

* THESE STATIONS ARE NOT UNDER NWS QUALITY CONTROL. THEY ALSO MAY NOT
  REPORT WEATHER SUCH AS PRECIPITATION OR FOG.

INZ001>027-271700-
NORTHERN INDIANA

CITY           SKY/WX    TMP DP  RH WIND       PRES   REMARKS
GARY*          PTSUNNY   75  72  88 S8        29.93R
SOUTH BEND     LGT RAIN  72  65  78 S9        29.96S
ELKHART*       CLOUDY    75  68  78 SW9       29.97S
GOSHEN         LGT RAIN  75  63  66 S10       29.97F
ANGOLA*          N/A     73  66  78 S6        30.00R
FORT WAYNE     CLOUDY    73  63  70 SW7       30.01R

$$
INZ028>050-271700-
CENTRAL INDIANA

CITY           SKY/WX    TMP DP  RH WIND       PRES   REMARKS
LAFAYETTE      PTSUNNY   75  63  66 S8        29.97S
KOKOMO*        CLOUDY    81  64  57 SW14      29.99S
MUNCIE*        MOSUNNY   81  64  56 SW10      30.01S
INDIANAPOLIS   MOSUNNY   78  66  66 S10       29.99S

$$
MIZ043>046-050>051-056>058-064>065-071>073-077>080-271700-
SOUTHWEST LOWER MICHIGAN

CITY           SKY/WX    TMP DP  RH WIND       PRES   REMARKS
BATTLE CREEK   MOSUNNY   78  65  63 S12       29.98R
BENTON HARBOR  MOSUNNY   78  66  66 SE10      29.93S
COLDWATER*     CLOUDY    74  65  72 S8        29.99R
HILLSDALE*     MOSUNNY   75  60  60 S7        30.01R
HOLLAND        SUNNY     79  67  66 S8        29.94F
GRAND RAPIDS   MOSUNNY   83  66  56 S8        29.95S
KALAMAZOO      MOSUNNY   78  64  61 S12       29.97R
STURGIS*       CLOUDY    75  64  67 S8        29.98S
THREE RIVERS*  FAIR      77  63  62 S10       29.97S

$$
OHZ001>008-015>018-024>025-271700-
NORTHWEST OHIO

CITY           SKY/WX    TMP DP  RH WIND       PRES   REMARKS
DEFIANCE       MOSUNNY   79  62  56 VRB5      30.00R
FINDLAY        SUNNY     81  60  48 SW7       30.00S
TOLEDO EXPRESS MOSUNNY   79  62  56 S5        29.99S
TOLEDO METCALF MOSUNNY   80  62  54 SW12      30.01R
LIMA           MOSUNNY   78  62  57 S7        30.02R

$$
AND FOR LAKE MICHIGAN COASTAL AND OPEN LAKE BUOY OBSERVATIONS

STATION/POSITION TEMP    WIND        PRES    VSBY  WAVE
                 AIR SEA DIR/SP/G                  HT/PER
                 (F)     (DEG/KT/KT) (MB)    (MI)  (FT/S)
CALUMET HARBOR    72     200/ 10/ 14 1012.2F
MICHIGAN CITY     72     140/  9/ 11   N/A
BURNS HARBOR      74     190/ 12/ 17 1013.5F
SAINT JOSEPH      70     190/  5/  8 1013.5F
SOUTH LAKE BUOY   55 50  160/ 12/ 12 1012.4          1
4 MI NW BRIDGMAN  65 61  210/  4/  6   N/A           1/ 2
MICHIGAN CITY     65 59  170/  4/  6   N/A           1

$$
&&




USA.gov is the U.S. government's official web portal to all federal, state and local government web resources and services.